Volver al catálogo

ONEWEB-0271

ActivoComunicacionesPO
NORAD 48989·PAYLOAD·🇬🇧 United Kingdom

Lanzado Jul 1, 2021 desde Vostochny Cosmodrome

Loading…

Próximos Pases (próximas 24 horas)

TLE

ActualizadoSource: CelesTrak SupGP

Época: Sep 14, 2026, 15:02 UTC

1 48989C 21060Y   26257.62689074  .00000393  00000+0  10298-2 0  2574
2 48989  87.9156 211.0129 0002151  73.3586 322.8474 13.16594623    14

Sigue ONEWEB-0271 en tiempo real con AllMySat

Download on the App Store